Regional Weather Roundup
Issued by NWS Austin/San Antonio, TX

Current Version | Previous Version | Text Only | Print | Product List | Glossary On
Versions: 1 2 3 4 5 6 7 8 9 10 11 12 13 14 15 16 17 18 19 20 21 22 23 24 25 26 27 28 29 30 31 32 33 34 35 36 37 38 39 40 41 42 43 44 45 46 47 48 49 50
000
ASUS44 KEWX 291001
RWREWX
SOUTH TEXAS REGIONAL WEATHER ROUNDUP
NATIONAL WEATHER SERVICE AUSTIN/SAN ANTONIO TX
500 AM CDT THU SEP 29 2022

NOTE: "FAIR" INDICATED FEW OR NO CLOUDS BELOW 12,000 FEET WITH NO
SIGNIFICANT WEATHER AND/OR OBSTRUCTIONS TO VISIBILITY.

* - THESE STATIONS ARE NOT NWS OR FAA STATIONS...AND ARE NOT SUBJECT
    TO NWS AND FAA QUALITY CONTROL.

TXZ171-172-183>190-291100-
TEXAS HILL COUNTRY AND EDWARDS PLATEAU

CITY           SKY/WX    TMP DP  RH WIND       PRES   REMARKS
JUNCTION       CLEAR     54  46  74 CALM      30.25F
*LLANO         CLOUDY    55  46  71 CALM      30.21S
BURNET         CLEAR     62  44  51 CALM      30.23F
*HORSESHOE BAY CLEAR     58  45  62 CALM      30.21S
*LAGO VISTA      N/A     67  42  39 W7        30.21S
*KERRVILLE     CLEAR     54  45  71 CALM      30.23F
*FREDERICKSBRG CLEAR     55  46  72 CALM      30.23F
*ROCKSPRINGS   PTCLDY    64  48  55 SW3       30.30F
*BOERNE        CLEAR     59  46  63 CALM      30.22F
HONDO          CLEAR     58  44  60 N6        30.20F
*UVALDE        CLEAR     58  49  74 CALM      30.23F
DEL RIO        CLEAR     63  51  65 CALM      30.20F
*LAUGHLIN AFB  CLEAR     60  52  73 NE3       30.19S
*SPOFFORD      CLEAR     59  48  67 CALM      30.19F
CARRIZO SPRGS  CLEAR     59  52  77 CALM      30.19S
*FAITH RANCH   CLEAR     63  54  72 W5        30.22S
$$

TXZ173-191>194-202-209-217>225-228-291100-
CENTRAL AND SOUTH CENTRAL TEXAS

CITY           SKY/WX    TMP DP  RH WIND       PRES   REMARKS
GEORGETOWN     CLEAR     61  49  64 CALM      30.21F
*TAYLOR        CLEAR     57  48  72 CALM      30.19F
AUSTIN/BERGSTM CLEAR     57  49  74 CALM      30.18F
AUSTIN/MABRY   NOT AVBL
*PFLUGERVILLE  CLEAR     64  46  52 CALM      30.18F
SAN MARCOS     CLEAR    N/A N/A N/A NW3         N/A
NEW BRAUNFELS  CLEAR     68  50  52 W3        30.18F
*RANDOLPH AFB  CLEAR     62  49  64 NW6       30.16F
*SEGUIN        CLEAR     60  49  68 NW3       30.17F
SAN ANTONIO    CLEAR     64  49  57 NW3       30.20F
STINSON FIELD  CLEAR     61  52  72 CALM      30.18F
*KELLY FIELD   CLEAR     60  49  66 CALM      30.17F
*PLEASANTON    CLEAR     58  53  82 CALM      30.20S
*KENEDY        CLEAR     59  53  81 CALM      30.20S
*LA GRANGE     NOT AVBL
*GIDDINGS      CLEAR     60  49  66 CALM      30.20S
*GONZALES      CLEAR     62  51  69 CALM      30.18F
$$

TXZ163>164-176>182-195>201-210>213-226-227-235-291100-
SOUTHEAST TEXAS

CITY           SKY/WX    TMP DP  RH WIND       PRES   REMARKS
COLLEGE STN    CLEAR     63  51  65 CALM      30.21S
*BRYAN         CLEAR     62  51  65 CALM      30.23S
*CALDWELL      CLEAR     59  53  79 CALM      30.22S
*CROCKETT      CLEAR     64  50  59 NE6       30.21F
*BRENHAM       CLEAR     61  52  73 CALM        N/A
HUNTSVILLE     CLEAR     60  52  74 CALM      30.21R
CONROE         CLEAR     60  51  72 VRB3      30.21S
HOUSTON BUSH   CLEAR     66  49  54 NE5       30.19S
HOUSTON HOBBY  CLEAR     71  49  45 NE8       30.17S
*HOUSTON SW AP NOT AVBL
PEARLAND       CLEAR     63  55  75 CALM      30.19S
HOUSTON HOOKS  CLEAR     59  52  77 MISG      30.20S
ELLINGTON FLD  CLEAR     68  52  56 NE9       30.17S
SUGAR LAND     CLEAR     59  55  87 CALM      30.19R
*HOUSTON EXEC  CLEAR     59  55  88 NE5       30.21S
*CLEVELAND MUN NOT AVBL
*WHARTON       CLEAR     59  56  89 CALM      30.19S
*COLUMBUS      FAIR      59  53  81 CALM      30.20S
*EAGLE LAKE    CLEAR     60  54  79 MISG      30.19S
$$

TXZ214>216-236>238-291100-
THE UPPER TEXAS COAST

CITY           SKY/WX    TMP DP  RH WIND       PRES   REMARKS
*ORANGE        CLEAR     66  49  54 NE7       30.21S
PORT ARTHUR    CLEAR     65  48  54 NE13      30.18S
GALVESTON      CLEAR     74  56  53 NE13      30.16F
ANGLETON       CLEAR     58  54  86 N3        30.17F
*BAY CITY      CLEAR     60  56  87 N7        30.18F
PALACIOS       CLEAR     61  57  87 NE7       30.17S
$$

TXZ229>234-239>247-291100-
TEXAS COASTAL BEND AND RIO GRANDE PLAINS

CITY           SKY/WX    TMP DP  RH WIND       PRES   REMARKS
VICTORIA       CLEAR     60  57  89 NE7       30.17F
*BEEVILLE      CLEAR     63  58  83 NW6       30.17S
ROCKPORT       CLEAR     70  65  84 NW6       30.16F
*PORT ARANSAS  CLEAR    N/A N/A N/A N6        30.18S
*PORT LAVACA   CLEAR     64  56  78 CALM      30.18S
*INGLESIDE     NOT AVBL
CORPUS CHRISTI CLEAR     65  59  81 NW6       30.16S
CORPUS NAS     CLEAR     73  66  78 NW6       30.15F
*ROBSTOWN      CLEAR     63  58  84 MISG      30.17S
ALICE          CLEAR     62  59  90 CALM      30.16F
KINGSVILLE NAS CLEAR     62  60  93 NW6       30.16F
COTULLA        CLEAR     63  53  70 N3        30.18F
LAREDO         CLEAR     68  60  75 SW3       30.19S
$$

TXZ248>255-291100-
DEEP SOUTH TEXAS

CITY           SKY/WX    TMP DP  RH WIND       PRES   REMARKS
BROWNSVILLE    CLEAR     68  64  87 NW5       30.14S
PORT ISABEL    CLEAR     75  62  64 NE5       30.14S
HARLINGEN      CLEAR     63  63 100 NW6       30.14F
*HEBBRONVILLE  CLEAR     61  57  87 W5        30.20S
MCALLEN        CLEAR     68  61  78 NW3       30.17S
*WESLACO       CLEAR     65  62  90 NW5       30.16
FALFURRIAS     CLEAR     63  59  88 NW3       30.16S
EDINBURG       CLEAR     62  60  94 NW6       30.17F
*ZAPATA        CLEAR     65  62  91 CALM      30.20S
$$

TXZ213>215-236>238-242>244-246-247-251-254-255-291100-
CMAN STATIONS

STATION/POSITION TIME  TEMP    WIND        PRES    WAVE
                       AIR SEA DIR/SP/G            HT/PER
                 (UTC) (F)     (DEG/KT/KT) (MB)    (FT/S)
SEA RIM ST PARK  0900   68      50/ 11/ 13 1022.1
NORTH JETTY/GLS  0924   75 79   80/ 20/ 24 1020.0
EAGLE POINT      0930   74 77   70/ 16/ 20 1020.9
MORGANS POINT    0930   71 81   50/ 13/ 17 1021.2
MISSION/ARANSAS  0900   73     350/  6     1022.0
PORT O`CONNOR    0924   75 87  310/  7/  9 1021.2
PORT ARANSAS     0900   74     330/  4/  5   N/A
BAFFIN BAY       0924   71 82  310/  8/  9 1021.3
PORT ISABEL      0924   80 82   40/ 10/ 13 1019.9
$$



USA.gov is the U.S. government's official web portal to all federal, state and local government web resources and services.